User: anonymous   Login
Location: Unspecified
(0.0000°N, 0.0000°E)
Time: 09:48:19
(UTC+00:00)
Language:

Meteor 2-2 - Orbit

View from above orbital plane
View from above orbital plane
View from above satellite
View from above satellite

Ground track
Ground track

The orbit data is extracted from the following two-line orbital elements,

1 09661U 77002A   18176.14736443  .00000123  00000-0  70608-4 0  9994
2 09661  81.2653  14.3321 0009805 236.0191 124.0045 14.03577571121771
Epoch (UTC): 25 June 2018 03:32:12
Eccentricity: 0.0009805
inclination: 81.2653°
perigee height: 874 km
apogee height: 888 km
right ascension of ascending node: 14.3321°
argument of perigee: 236.0191°
revolutions per day: 14.03577571
mean anomaly at epoch: 124.0045°
orbit number at epoch: 12177

The dashed part of the orbit path shows where the satellite is in the earth's shadow,  

DLR